Location: Arthez
(43.0833°N, 0.2500°W)
Time: 23:15:51
(UTC+00:00)

deb Kosmos-970 - Pass Details

Date: 19 August 2022
Orbit: 900 x 1112 km, 65.8° (Epoch: 28 September)

Event Time Altitude Azimuth Distance (km) Brightness Sun altitude
Rises 21:37:10 0° 329° (NNW) 3,947 ? -25.0°
Reaches altitude 10° 21:40:51 10° 346° (NNW) 2,981 ? -25.4°
Maximum altitude 21:45:42 19° 30° (NNE) 2,351 ? -26.0°
Enters shadow 21:50:03 11° 71° (ENE) 2,836 ? -26.4°
